TimeMDT,TemperatureF,Dew PointF,Humidity,Sea Level PressureIn,VisibilityMPH,Wind Direction,Wind SpeedMPH,Gust SpeedMPH,PrecipitationIn,Events,Conditions,WindDirDegrees,DateUTC
12:53 AM,52.0,41.0,66,30.11,10.0,SSE,9.2,-,N/A,,Clear,160,2012-10-15 06:53:00
1:53 AM,48.9,41.0,74,30.10,10.0,SE,8.1,-,N/A,,Clear,130,2012-10-15 07:53:00
2:53 AM,50.0,39.9,68,30.09,10.0,ESE,9.2,-,N/A,,Clear,120,2012-10-15 08:53:00
3:53 AM,48.9,39.9,71,30.07,10.0,SE,5.8,-,N/A,,Clear,140,2012-10-15 09:53:00
4:53 AM,48.0,41.0,77,30.06,10.0,SE,6.9,-,N/A,,Clear,140,2012-10-15 10:53:00
5:53 AM,46.0,39.9,79,30.06,10.0,ESE,8.1,-,N/A,,Clear,110,2012-10-15 11:53:00
6:53 AM,48.0,39.9,74,30.06,10.0,SE,9.2,-,N/A,,Partly Cloudy,130,2012-10-15 12:53:00
7:53 AM,48.0,39.9,74,30.08,10.0,ESE,5.8,-,N/A,,Scattered Clouds,120,2012-10-15 13:53:00
8:53 AM,54.0,42.1,64,30.07,10.0,SE,9.2,-,N/A,,Mostly Cloudy,140,2012-10-15 14:53:00
9:53 AM,57.0,41.0,55,30.09,10.0,ESE,3.5,-,N/A,,Scattered Clouds,110,2012-10-15 15:53:00
10:53 AM,61.0,39.9,46,30.07,10.0,SE,9.2,-,N/A,,Mostly Cloudy,140,2012-10-15 16:53:00
11:53 AM,64.0,39.9,41,30.05,10.0,South,10.4,-,N/A,,Mostly Cloudy,190,2012-10-15 17:53:00
12:53 PM,66.0,39.9,38,30.03,10.0,SSE,8.1,-,N/A,,Scattered Clouds,150,2012-10-15 18:53:00
1:53 PM,71.1,36.0,28,30.01,10.0,SSW,8.1,-,N/A,,Scattered Clouds,200,2012-10-15 19:53:00
2:53 PM,71.1,41.0,34,29.99,10.0,NW,11.5,-,N/A,,Scattered Clouds,320,2012-10-15 20:53:00
3:53 PM,73.0,36.0,26,29.98,10.0,NW,4.6,-,N/A,,Mostly Cloudy,310,2012-10-15 21:53:00
4:53 PM,70.0,36.0,29,29.97,10.0,North,6.9,-,N/A,,Mostly Cloudy,350,2012-10-15 22:53:00
5:53 PM,70.0,39.0,32,29.97,10.0,North,5.8,-,N/A,,Scattered Clouds,360,2012-10-15 23:53:00
6:53 PM,63.0,39.9,43,29.97,10.0,Calm,Calm,-,N/A,,Scattered Clouds,0,2012-10-16 00:53:00
7:53 PM,63.0,41.0,45,29.96,10.0,Calm,Calm,-,N/A,,Scattered Clouds,0,2012-10-16 01:53:00
8:53 PM,57.9,41.0,53,29.96,10.0,South,4.6,-,N/A,,Scattered Clouds,170,2012-10-16 02:53:00
9:53 PM,55.9,39.0,53,29.97,10.0,SE,6.9,-,N/A,,Scattered Clouds,140,2012-10-16 03:53:00
10:53 PM,54.0,39.0,57,29.95,10.0,SSE,5.8,-,N/A,,Scattered Clouds,150,2012-10-16 04:53:00
11:53 PM,55.0,41.0,59,29.92,10.0,SSE,10.4,-,N/A,,Scattered Clouds,160,2012-10-16 05:53:00